OBJECT E, 59921

Orbit data source: Space-Track

You're viewing an Uncataloged Satellite

Recently launched and/or uncataloged satellites may have evolving metadata. Metadata may include but not limited to: Owner, Maufacturer, Bus, Motor, and Mission.

OBJECT E, 59921 is a Chinese satellite in SSO that was launched on Thu, 30 May 2024 UTC via a GUSHENXING 1 launch vehicle from the Jiuquan Satellite Launch Center, China (JSC). Unknown objects in Earth's orbit typically refer to objects detected orbiting the Earth but have not yet been identified or cataloged. These objects could be anything from previously untracked satellites, spent rocket stages, debris from satellite collisions, or even natural meteoroids temporarily captured by Earth's gravity.

Loading next visibility...
Identifier
59921, 2024-105E
Orbit
SSO
Country
Flag of CNCN / PRC
Related business
None
Manufacturer
Unknown
Mission
Operational Commercial Meteo Radio Occ.
Bus & Motor
Unknown
Mass
Unknown
Launch date (UTC)
2024-05-30 (2 years ago)
Launch vehicle
GUSHENXING 1
Launch site
Jiuquan Satellite Launch Center, China (JSC)
Object type
Unknown
Shape & HBR
Box + 1 Pan, 2.5 m
Radar Cross Section
5.339 m², Medium (>0.1 m² and < 1m²)

Expand to show TLE details & history
Last TLE update: 22 hours ago

TLE from 22 hours ago
0 OBJECT E
1 59921U 24105E   26172.53335694  .00002492  00000-0  15205-3 0  9997
2 59921  97.5791 189.0915 0031660 168.8919 191.3017 15.10847321113792
Epoch: 2026-06-21T12:48Z
TLE epoch observation values (Epoch: 2026-06-21T12:48:02.039Z)
Latitude
-0°
Longitude
87.35074°
Altitude
558.153 km
Speed
7.571 km/s
True Right ascension
12h 36m 21s
True Declination
0° 00' 00"
Sunlit
Object was in daylight at epoch
Visualization orbit readout
Latitude
Unknown
Longitude
Unknown
Altitude
Unknown
Speed
Unknown
Apparent Right ascension
Unknown
Apparent Declination
Unknown
Sunlit
N/A
Visualization observer readout
Local Sidereal Time
21:33:45
Azimuth
Unknown
Elevation
Unknown
Doppler factor
Unknown
Orbital elements
Apogee altitude
552.473 km
Perigee altitude
508.727 km
Semi-major axis
6,908.737 km
Eccentricity
0.00317
Inclination
97.5791°
RAAN
189.0915°
Arg. of periapsis
168.8919°
True anomaly
191.23088°
Mean anomaly
191.3017°
Eccentric anomaly
191.26626°
Mean motion
3.77959 °/min
Orbital period
95.25 mins
BSTAR
0.00015205
Loading maneuver chart data...
Computing Atmospheric mass density...
Loading historical data...
Loading historical data...
Loading historical data...
Loading historical data...
Loading historical data...
Loading historical data...
Loading historical data...
Other satellites on launch #105 in the year 2024 (2024-05-30 UTC)

Documentation

Showing up to 5 results
|